Weather History for De Queen, AR

Change the Weather History Date:

Wednesday, March 19, 2014

  Actual Average Record
Temperature  
Mean Temperature 53 °F 54 °F  
Max Temperature 65 °F 67 °F 83 °F (1994)
Min Temperature 40 °F 41 °F 20 °F (1988)
Degree Days  
Heating Degree Days 12 11  
Month to date heating degree days 321 257  
Since 1 July heating degree days 3093 2748  
Cooling Degree Days 0 0  
Month to date cooling degree days 0 0  
Year to date cooling degree days 0 2  
Growing Degree Days 3 (Base 50)    
Moisture  
Dew Point 35 °F    
Average Humidity 61    
Maximum Humidity 93    
Minimum Humidity 29    
Precipitation  
Precipitation 0.00 in 0.16 in 4.21 in (2006)
Month to date precipitation 2.77 2.41  
Year to date precipitation 4.71 9.41  
Snow  
Snow 0.00 in - - ()
Month to date snowfall T  
Since 1 July snowfall 1.2  
Snow Depth 0.00 in    
Sea Level Pressure  
Sea Level Pressure 30.05 in    
Wind  
Wind Speed 6 mph (NNW)    
Max Wind Speed 15 mph    
Max Gust Speed 23 mph    
Visibility 10 miles    
Events      
T = Trace of Precipitation, MM = Missing Value Source: NWS Daily Summary

Daily Weather History Graph

Daily Weather History Graph

Search for Another Location

Airport:

Trip Planner

Search our weather history database for the weather conditions in past years. The results will help you decide how hot, cold, wet, or windy it might be!

Date:

Astronomy

Mar. 19, 2014 Rise Set
Actual Time 7:22 AM CDT 7:28 PM CDT
Civil Twilight 6:57 AM CDT 7:53 PM CDT
Nautical Twilight 6:28 AM CDT 8:22 PM CDT
Astronomical Twilight 5:59 AM CDT 8:52 PM CDT
Moon 10:38 PM CDT (3/19) 8:57 AM CDT (3/19)
Length of Visible Light 12h 55m
Length of Day
12h 05m
Waning Gibbous, 91% of the Moon is Illuminated
Mar 19
Waning Gibbous
Mar 23
Last Quarter
Mar 30
New
Apr 7
First Quarter
Apr 15
Full

Hourly Weather History & Observations

Time (CDT) Temp. Windchill Dew Point Humidity Pressure Visibility Wind Dir Wind Speed Gust Speed Precip Events Conditions
12:53 AM 50.0 °F - 48.0 °F 93% 29.80 in 10.0 mi WNW 6.9 mph - N/A   Mostly Cloudy
1:53 AM 55.9 °F - 46.9 °F 72% 29.83 in 10.0 mi Calm Calm - N/A   Scattered Clouds
2:53 AM 52.0 °F - 39.0 °F 61% 29.87 in 10.0 mi West 8.1 mph - N/A   Clear
3:53 AM 52.0 °F - 35.1 °F 53% 29.89 in 10.0 mi NW 6.9 mph - N/A   Clear
4:53 AM 50.0 °F - 30.0 °F 46% 29.93 in 10.0 mi NW 10.4 mph 21.9 mph N/A   Clear
5:53 AM 45.0 °F 42.6 °F 30.0 °F 56% 29.96 in 10.0 mi NNW 4.6 mph - N/A   Clear
6:53 AM 44.1 °F 42.5 °F 30.0 °F 58% 30.00 in 10.0 mi NW 3.5 mph - N/A   Clear
7:53 AM 42.1 °F 39.2 °F 30.9 °F 65% 30.04 in 10.0 mi NW 4.6 mph - N/A   Clear
8:53 AM 45.0 °F 41.8 °F 32.0 °F 60% 30.07 in 10.0 mi NNW 5.8 mph - N/A   Clear
9:53 AM 48.0 °F - 33.1 °F 56% 30.09 in 10.0 mi NNW 11.5 mph - N/A   Clear
10:53 AM 52.0 °F - 35.1 °F 53% 30.13 in 10.0 mi NW 11.5 mph - N/A   Clear
11:53 AM 54.0 °F - 35.1 °F 49% 30.13 in 10.0 mi NNW 11.5 mph 18.4 mph N/A   Clear
12:53 PM 57.0 °F - 36.0 °F 45% 30.13 in 10.0 mi Variable 6.9 mph - N/A   Clear
1:53 PM 60.1 °F - 37.0 °F 42% 30.11 in 10.0 mi NNW 9.2 mph - N/A   Clear
2:53 PM 61.0 °F - 37.0 °F 41% 30.10 in 10.0 mi NNW 6.9 mph 18.4 mph N/A   Clear
3:53 PM 64.0 °F - 37.0 °F 37% 30.09 in 10.0 mi NW 6.9 mph - N/A   Clear
4:53 PM 64.0 °F - 37.0 °F 37% 30.09 in 10.0 mi NW 8.1 mph - N/A   Clear
5:53 PM 63.0 °F - 35.1 °F 35% 30.09 in 10.0 mi NNW 9.2 mph - N/A   Clear
6:53 PM 61.0 °F - 28.0 °F 29% 30.12 in 10.0 mi North 6.9 mph - N/A   Clear
7:53 PM 55.0 °F - 30.0 °F 38% 30.13 in 10.0 mi NNW 4.6 mph - N/A   Clear
8:53 PM 50.0 °F - 33.1 °F 52% 30.15 in 10.0 mi Calm Calm - N/A   Clear
9:53 PM 48.9 °F - 32.0 °F 52% 30.16 in 10.0 mi ENE 3.5 mph - N/A   Clear
10:53 PM 45.0 °F - 34.0 °F 65% 30.17 in 10.0 mi Calm Calm - N/A   Clear
11:53 PM 45.0 °F - 34.0 °F 65% 30.18 in 10.0 mi Calm Calm - N/A   Clear